GW1511 Weather Reports


Display with metric or nautical units.
time (UTC)temp
F
wind
direction
speed
MPH
gust
MPH
rain 1hr
in
rain 24hr
in
rain mn
in
humidity
%
barometer
mb
20260507044040 49 47 0.0 0.0 0.01 0.04 0.01 97 1009.8
20260507043538 49 47 0.0 0.0 0.01 0.04 0.01 97 1009.9
20260507043038 48 47 0.0 0.0 0.00 0.03 0.00 97 1009.9
20260507042536 48 47 0.0 0.0 0.00 0.03 0.00 97 1009.8
20260507042035 48 47 0.0 0.0 0.00 0.03 0.00 97 1009.7
20260507041534 48 47 0.0 0.0 0.00 0.03 0.00 97 1009.6
20260507041033 48 47 0.0 0.0 0.00 0.03 0.00 97 1009.5
20260507040533 48 47 0.0 0.0 0.00 0.03 0.00 97 1009.5
20260507040035 48 47 0.0 0.0 0.00 0.03 0.00 97 1009.5
20260507035532 48 47 0.0 0.0 0.00 0.06 0.00 97 1009.4
20260507035031 48 47 0.0 0.0 0.00 0.06 0.00 97 1009.4
20260507034531 48 47 0.0 0.0 0.00 0.06 0.00 97 1009.4
20260507034031 48 47 0.0 0.0 0.00 0.06 0.00 97 1009.4
20260507033533 48 47 0.0 0.0 0.00 0.06 0.00 97 1009.4
20260507033032 48 47 0.0 0.0 0.00 0.06 0.00 97 1009.3
20260507032529 49 47 0.0 0.0 0.00 0.06 0.00 97 1009.3
20260507032032 49 47 0.0 0.0 0.00 0.06 0.00 97 1009.4
20260507031529 49 47 0.0 0.0 0.00 0.06 0.00 97 1009.3
20260507031029 48 47 0.0 0.0 0.00 0.06 0.00 97 1009.3
20260507030528 49 47 0.0 0.0 0.00 0.06 0.00 96 1009.3
20260507030030 49 47 0.0 0.0 0.00 0.06 0.00 96 1009.4
20260507025526 49 47 0.0 0.0 0.00 0.07 0.00 96 1009.4
20260507025025 49 47 0.0 0.0 0.00 0.07 0.00 96 1009.4
20260507024525 49 47 0.0 0.0 0.00 0.07 0.00 97 1009.3
20260507024027 50 47 0.0 0.0 0.00 0.07 0.00 97 1009.3
20260507023524 50 47 0.0 0.0 0.00 0.07 0.00 96 1009.3
20260507023028 50 47 0.0 0.0 0.00 0.07 0.00 96 1009.3
20260507022527 50 47 0.0 0.0 0.00 0.07 0.00 96 1009.3
20260507022023 50 47 0.0 0.0 0.00 0.07 0.00 96 1009.2
20260507021522 51 47 0.0 0.0 0.00 0.07 0.00 96 1009.3
20260507021021 51 47 0.0 0.0 0.00 0.07 0.00 97 1009.4
20260507020521 52 47 0.0 0.0 0.00 0.07 0.00 97 1009.3
20260507020021 51 47 0.0 0.0 0.00 0.07 0.00 97 1009.3
20260507015524 51 47 0.0 0.0 0.00 0.07 0.00 97 1009.4
20260507015020 51 47 0.0 0.0 0.00 0.07 0.00 96 1009.3
20260507014518 52 47 0.0 0.0 0.00 0.07 0.00 96 1009.2
20260507014018 52 47 0.0 0.0 0.00 0.07 0.00 96 1009.2
20260507013517 51 47 0.0 0.0 0.00 0.07 0.00 96 1009.1
20260507013019 51 47 0.0 0.0 0.00 0.07 0.00 96 1009.1
20260507012518 52 47 0.0 0.0 0.00 0.07 0.00 96 1009.1
20260507012017 52 47 0.0 0.0 0.00 0.07 0.00 96 1009.0
20260507011530 52 47 0.0 0.0 0.00 0.07 0.00 96 1009.1
20260507011014 52 47 0.0 0.0 0.00 0.07 0.00 96 1009.0
20260507010513 53 47 0.0 0.0 0.00 0.07 0.00 96 1009.0
20260507010013 53 47 0.0 0.0 0.00 0.07 0.00 96 1009.0
20260507005515 53 47 0.0 0.0 0.00 0.07 0.00 96 1009.0
20260507005010 54 47 0.0 0.0 0.00 0.07 0.00 96 1009.0
20260507004517 54 47 0.0 0.0 0.00 0.07 0.00 96 1009.1
20260507004010 55 47 0.0 0.0 0.00 0.07 0.00 96 1009.0
20260507003510 55 47 0.0 0.0 0.00 0.07 0.00 96 1009.0
20260507003016 55 47 0.0 0.0 0.00 0.07 0.00 96 1009.0
20260507002509 54 47 0.0 0.0 0.00 0.07 0.00 96 1009.0
20260507002011 54 48 0.0 0.0 0.00 0.07 0.00 96 1009.1
20260507001509 54 48 0.0 0.0 0.00 0.07 0.00 96 1009.0
20260507001009 56 269 0.0 0.0 0.00 0.07 0.00 80 1009.1
20260507000506 56 269 0.0 0.0 0.00 0.07 0.00 80 1009.1
20260507000006 56 269 0.0 0.0 0.00 0.07 0.00 80 1009.0
20260506235506 56 28 0.0 0.0 0.00 0.07 0.00 80 1009.0
20260506235005 56 28 0.0 0.0 0.00 0.07 0.00 82 1009.0
20260506234509 57 28 0.0 0.0 0.00 0.07 0.00 80 1008.9
20260506234003 57 28 0.0 0.0 0.00 0.07 0.00 80 1008.9
20260506233503 58 28 0.0 0.0 0.00 0.07 0.00 79 1009.0
20260506233002 57 28 0.0 0.0 0.00 0.07 0.00 80 1009.1
20260506232502 58 28 0.0 0.0 0.00 0.07 0.00 79 1009.0
20260506232000 58 28 0.0 0.0 0.00 0.07 0.00 79 1009.0
20260506231600 58 28 0.0 0.0 0.00 0.07 0.00 79 1008.9
20260506231100 58 28 0.0 0.0 0.00 0.07 0.00 80 1008.8
20260506230600 58 28 0.0 0.0 0.00 0.07 0.00 81 1008.8
20260506230058 58 28 0.0 0.0 0.00 0.07 0.00 81 1008.9
20260506225557 58 28 0.0 0.0 0.00 0.07 0.00 80 1008.8
20260506225057 58 28 0.0 0.0 0.00 0.07 0.00 81 1008.8
20260506224557 58 30 0.0 0.0 0.00 0.07 0.00 81 1008.8
20260506224055 58 38 0.0 0.0 0.00 0.07 0.00 81 1008.8
20260506223555 58 38 0.0 0.0 0.00 0.07 0.00 82 1008.9
20260506223056 58 27 0.0 0.0 0.00 0.07 0.00 82 1008.9
20260506222555 59 36 0.0 0.0 0.00 0.07 0.00 82 1008.9
20260506222055 58 31 0.0 0.0 0.00 0.07 0.00 82 1008.9
20260506221555 59 31 0.0 0.0 0.00 0.07 0.00 83 1008.8
20260506221053 59 31 0.0 0.0 0.00 0.07 0.00 84 1008.9
20260506220552 59 31 0.0 0.0 0.00 0.07 0.00 84 1008.9
20260506220059 59 31 0.0 0.0 0.00 0.07 0.00 84 1008.9
20260506215549 59 34 0.0 0.0 0.00 0.07 0.07 85 1008.9
20260506215048 59 346 0.0 0.0 0.00 0.07 0.07 86 1008.9
20260506214548 59 346 0.0 0.0 0.00 0.07 0.07 86 1008.7
20260506214045 59 98 0.0 0.0 0.00 0.07 0.07 86 1008.7
20260506213543 59 98 0.0 0.0 0.00 0.07 0.07 87 1008.8
20260506213044 59 98 0.0 0.0 0.00 0.07 0.07 87 1008.6
20260506212541 59 98 0.0 0.0 0.00 0.07 0.07 87 1008.6
20260506212043 59 98 0.0 0.0 0.00 0.07 0.07 87 1008.7
20260506211538 59 98 0.0 0.0 0.00 0.07 0.07 88 1008.7
20260506211036 59 98 0.0 0.0 0.00 0.07 0.07 88 1008.7
20260506210538 59 98 0.0 0.0 0.00 0.07 0.07 88 1008.6
20260506210033 59 98 0.0 0.0 0.00 0.07 0.07 88 1008.6
20260506205531 59 98 0.0 0.0 0.00 0.07 0.07 88 1008.6
20260506205031 60 98 0.0 0.0 0.00 0.07 0.07 89 1008.6
20260506204531 60 98 0.0 0.0 0.00 0.07 0.07 89 1008.5
20260506204032 60 98 0.0 0.0 0.00 0.07 0.07 89 1008.4
20260506203526 60 135 0.0 0.0 0.00 0.07 0.07 89 1008.4
20260506203033 60 122 0.0 0.0 0.00 0.07 0.07 89 1008.3
20260506202525 60 130 0.0 0.0 0.00 0.07 0.07 89 1008.3
20260506202022 60 76 0.0 0.0 0.00 0.07 0.07 89 1008.3
20260506201522 61 76 0.0 0.0 0.00 0.07 0.07 89 1008.3
20260506201019 61 76 0.0 0.0 0.00 0.07 0.07 89 1008.3
20260506200517 61 76 0.0 0.0 0.00 0.07 0.07 89 1008.3
20260506200019 61 77 0.0 0.0 0.00 0.07 0.07 89 1008.3
20260506195515 61 77 0.0 0.0 0.00 0.07 0.07 89 1008.2
20260506195013 61 80 0.0 0.0 0.00 0.07 0.07 89 1008.0
20260506194512 61 80 0.0 0.0 0.00 0.07 0.07 89 1008.0
20260506194010 61 351 0.0 0.0 0.00 0.07 0.07 89 1008.0
20260506193508 61 332 0.0 0.0 0.00 0.07 0.07 89 1007.9
20260506193007 61 111 0.0 0.0 0.00 0.07 0.07 89 1007.8
20260506192506 61 112 0.0 0.0 0.00 0.07 0.07 88 1007.6
20260506192004 61 112 0.0 0.0 0.00 0.07 0.07 88 1007.6
20260506191504 61 111 0.0 0.0 0.00 0.07 0.07 88 1007.6
20260506191001 62 112 0.0 0.0 0.00 0.07 0.07 87 1007.5
20260506190600 62 112 0.0 0.0 0.00 0.07 0.07 87 1007.4
20260506190058 62 112 0.0 0.0 0.00 0.07 0.07 86 1007.4
20260506185557 62 112 0.0 0.0 0.00 0.07 0.07 85 1007.3
20260506185058 62 112 0.0 0.0 0.00 0.07 0.07 85 1007.3
20260506184600 62 112 0.0 0.0 0.00 0.07 0.07 85 1007.2
20260506184053 62 112 0.0 0.0 0.00 0.07 0.07 84 1007.2
20260506183552 63 112 0.0 0.0 0.00 0.07 0.07 84 1007.1
20260506183053 63 113 0.0 0.0 0.00 0.07 0.07 83 1007.1
20260506182548 64 113 0.0 0.0 0.00 0.07 0.07 82 1007.0
20260506182048 64 107 0.0 0.0 0.00 0.07 0.07 81 1006.9
20260506181546 65 109 0.0 0.0 0.00 0.07 0.07 81 1006.8
20260506181045 65 101 0.0 0.0 0.00 0.07 0.07 80 1006.8
20260506180544 66 101 0.0 0.0 0.00 0.07 0.07 79 1006.7
20260506180043 65 113 0.0 0.0 0.00 0.07 0.07 78 1006.6
20260506175539 65 113 0.0 0.0 0.00 0.07 0.07 78 1006.6
20260506175040 65 101 0.0 0.0 0.00 0.07 0.07 77 1006.6
20260506174537 65 148 0.0 0.0 0.00 0.07 0.07 77 1006.5
20260506174035 65 115 0.0 0.0 0.00 0.07 0.07 75 1006.5
20260506173534 65 115 0.0 0.0 0.00 0.07 0.07 74 1006.5
20260506173042 65 118 0.0 0.0 0.00 0.07 0.07 74 1006.4
20260506172531 64 121 0.0 0.0 0.00 0.07 0.07 74 1006.4
20260506172031 64 100 0.0 0.0 0.00 0.07 0.07 74 1006.4
20260506171529 64 87 0.0 0.0 0.00 0.07 0.07 73 1006.5
20260506171028 64 33 0.0 0.0 0.00 0.07 0.07 72 1006.5
20260506170529 64 103 0.0 0.0 0.00 0.07 0.07 74 1006.5
20260506170024 64 98 0.0 0.0 0.00 0.07 0.07 74 1006.4
20260506165522 65 129 0.0 0.0 0.00 0.07 0.07 74 1006.3
20260506165021 65 52 0.0 0.0 0.00 0.07 0.07 74 1006.4
20260506164520 65 271 0.0 0.0 0.00 0.07 0.07 74 1006.4
20260506164019 64 271 0.0 0.0 0.00 0.07 0.07 75 1006.3
20260506163518 64 306 0.0 0.0 0.00 0.07 0.07 74 1006.4
20260506163034 64 348 0.0 0.0 0.00 0.07 0.07 72 1006.3
20260506162514 64 27 0.0 0.0 0.00 0.07 0.07 74 1006.3
20260506162017 65 202 0.0 0.0 0.00 0.07 0.07 74 1006.6
20260506161515 66 327 0.0 0.0 0.00 0.07 0.07 74 1006.5
20260506161010 67 56 0.0 0.0 0.00 0.07 0.07 74 1006.6
20260506160509 69 344 0.0 0.0 0.00 0.07 0.07 76 1006.5
20260506160008 69 264 0.0 0.0 0.00 0.07 0.07 75 1006.1
20260506155504 70 152 0.0 0.0 0.00 0.07 0.07 75 1006.0
20260506155004 70 138 0.0 0.0 0.00 0.07 0.07 75 1006.1
20260506154507 69 122 0.0 0.0 0.00 0.07 0.07 74 1006.1
20260506154002 69 179 0.0 0.0 0.00 0.07 0.07 75 1006.1
20260506153600 69 123 0.0 0.0 0.00 0.07 0.07 77 1006.2
20260506153126 69 137 0.0 0.0 0.00 0.07 0.07 77 1006.2
20260506152559 69 105 0.0 0.0 0.00 0.07 0.07 79 1006.1
20260506152055 69 113 0.0 0.0 0.00 0.07 0.07 79 1006.0
20260506151555 69 119 0.0 0.0 0.00 0.07 0.07 78 1006.0
20260506151054 70 96 0.0 0.0 0.00 0.07 0.07 76 1006.0
20260506150551 70 111 0.0 0.0 0.00 0.07 0.07 76 1006.1
20260506150051 71 98 0.0 0.0 0.00 0.07 0.07 74 1006.2
20260506145551 71 113 0.0 0.0 0.00 0.07 0.07 73 1006.2
20260506145046 71 110 0.0 0.0 0.00 0.07 0.07 73 1006.3
20260506144546 71 126 0.0 0.0 0.00 0.07 0.07 71 1006.3
20260506144044 71 136 0.0 0.0 0.00 0.07 0.07 71 1006.4
20260506143543 71 213 0.0 0.0 0.00 0.07 0.07 73 1006.2
20260506143041 71 130 0.0 0.0 0.00 0.07 0.07 73 1006.3
20260506142542 71 112 0.0 0.0 0.00 0.07 0.07 77 1006.3
20260506142038 71 117 0.0 0.0 0.00 0.07 0.07 78 1006.4
20260506141539 70 120 0.0 0.0 0.00 0.07 0.07 79 1006.4
20260506141036 70 105 0.0 0.0 0.00 0.07 0.07 80 1006.6
20260506140537 70 48 0.0 0.0 0.00 0.07 0.07 82 1006.6
20260506140035 69 114 0.0 0.0 0.00 0.07 0.07 83 1006.7
20260506135530 68 105 0.0 0.0 0.00 0.07 0.07 83 1006.7
20260506135034 68 110 0.0 0.0 0.00 0.07 0.07 84 1006.7
20260506134529 68 103 0.0 0.0 0.00 0.07 0.07 85 1006.7
20260506134028 67 121 0.0 0.0 0.00 0.07 0.07 84 1006.7
20260506133526 67 92 0.0 0.0 0.00 0.07 0.07 85 1006.8
20260506133024 67 98 0.0 0.0 0.00 0.07 0.07 85 1007.0
20260506132523 67 108 0.0 0.0 0.00 0.07 0.07 85 1006.9
20260506132021 67 105 0.0 0.0 0.00 0.07 0.07 87 1006.8
20260506131521 66 117 0.0 0.0 0.00 0.07 0.07 88 1006.9
20260506131018 66 101 0.0 0.0 0.00 0.07 0.07 88 1006.9
20260506130519 65 114 0.0 0.0 0.00 0.07 0.07 88 1006.9
20260506130015 65 99 0.0 0.0 0.00 0.07 0.07 88 1007.0
20260506125513 65 103 0.0 0.0 0.00 0.07 0.07 88 1006.9
20260506125012 65 92 0.0 0.0 0.00 0.07 0.07 89 1007.0
20260506124510 65 94 0.0 0.0 0.00 0.07 0.07 89 1007.0
20260506124009 65 87 0.0 0.0 0.00 0.07 0.07 89 1007.0
20260506123510 65 112 0.0 0.0 0.00 0.07 0.07 89 1007.2
20260506123009 64 97 0.0 0.0 0.00 0.07 0.07 89 1007.3
20260506122506 64 116 0.0 0.0 0.01 0.07 0.07 89 1007.3
20260506122003 64 103 0.0 0.0 0.01 0.07 0.07 89 1007.3
20260506121502 64 107 0.0 0.0 0.01 0.07 0.07 89 1007.4
20260506121001 64 122 0.0 0.0 0.01 0.07 0.07 89 1007.6
20260506120559 64 122 0.0 0.0 0.01 0.07 0.07 89 1007.7
20260506120058 64 105 0.0 0.0 0.01 0.07 0.07 89 1007.7
20260506115556 64 103 0.0 0.0 0.01 0.07 0.07 89 1007.7
20260506115055 64 109 0.0 0.0 0.01 0.07 0.07 89 1007.7
20260506114554 64 103 0.0 0.0 0.01 0.07 0.07 89 1007.7
20260506114051 64 119 0.0 0.0 0.01 0.07 0.07 89 1007.8
20260506113551 64 107 0.0 0.0 0.01 0.07 0.07 89 1007.8
20260506113050 64 130 0.0 0.0 0.01 0.07 0.07 90 1007.7
20260506112547 64 126 0.0 0.0 0.00 0.06 0.06 89 1007.8
20260506112046 64 88 0.0 0.0 0.00 0.06 0.06 89 1007.7
20260506111545 64 115 0.0 0.0 0.00 0.06 0.06 89 1007.8
20260506111043 63 130 0.0 0.0 0.00 0.06 0.06 89 1007.8
20260506110542 63 103 0.0 0.0 0.00 0.06 0.06 89 1007.9
20260506110042 63 85 0.0 0.0 0.00 0.06 0.06 88 1008.0
20260506105539 63 94 0.0 0.0 0.00 0.06 0.06 88 1008.1
20260506105037 63 76 0.0 0.0 0.00 0.06 0.06 88 1008.1
20260506104537 63 101 0.0 0.0 0.00 0.06 0.06 88 1008.1
20260506104035 63 127 0.0 0.0 0.00 0.06 0.06 88 1008.0
20260506103533 63 96 0.0 0.0 0.00 0.06 0.06 88 1008.2
20260506103032 63 97 0.0 0.0 0.00 0.06 0.06 88 1008.2
20260506102531 63 101 0.0 0.0 0.00 0.06 0.06 87 1008.2
20260506102028 63 118 0.0 0.0 0.00 0.06 0.06 88 1008.2
20260506101528 63 121 0.0 0.0 0.00 0.06 0.06 87 1008.3
20260506101027 63 118 0.0 0.0 0.00 0.06 0.06 87 1008.3
20260506100525 63 125 0.0 0.0 0.00 0.06 0.06 87 1008.3
20260506100023 63 124 0.0 0.0 0.00 0.06 0.06 87 1008.3
20260506095522 63 105 0.0 0.0 0.00 0.13 0.06 87 1008.3
20260506095020 63 112 0.0 0.0 0.00 0.13 0.06 88 1008.3
20260506094519 63 113 0.0 0.0 0.00 0.13 0.06 88 1008.3
20260506094019 63 121 0.0 0.0 0.00 0.13 0.06 89 1008.2
20260506093521 63 90 0.0 0.0 0.00 0.13 0.06 89 1008.2
20260506093014 62 98 0.0 0.0 0.00 0.13 0.06 89 1008.3
20260506092513 62 134 0.0 0.0 0.00 0.13 0.06 89 1008.4
20260506092011 62 130 0.0 0.0 0.00 0.13 0.06 89 1008.4
20260506091510 62 111 0.0 0.0 0.00 0.13 0.06 89 1008.4
20260506091012 62 79 0.0 0.0 0.00 0.13 0.06 89 1008.3
20260506090506 62 113 0.0 0.0 0.00 0.13 0.06 89 1008.4
20260506090006 62 111 0.0 0.0 0.00 0.13 0.06 90 1008.3
20260506085504 61 79 0.0 0.0 0.00 0.24 0.06 90 1008.3
20260506085002 61 94 0.0 0.0 0.00 0.24 0.06 90 1008.3
20260506084502 61 99 0.0 0.0 0.00 0.24 0.06 90 1008.4
20260506084100 61 97 0.0 0.0 0.00 0.24 0.06 90 1008.2
20260506083559 61 98 0.0 0.0 0.00 0.24 0.06 90 1008.3
20260506083058 61 109 0.0 0.0 0.00 0.24 0.06 90 1008.3
20260506082555 61 115 0.0 0.0 0.00 0.24 0.06 90 1008.3
20260506082054 61 136 0.0 0.0 0.00 0.24 0.06 90 1008.3
20260506081603 61 130 0.0 0.0 0.00 0.24 0.06 89 1008.2
20260506081054 61 130 0.0 0.0 0.00 0.24 0.06 88 1008.2
20260506080550 60 97 0.0 0.0 0.00 0.24 0.06 86 1008.0
20260506073039 0 0.0 0.0 0.00 0.35 0.06 1008.2
20260506072538 0 0.0 0.0 0.00 0.35 0.06 1008.3
20260506072037 0 0.0 0.0 0.00 0.35 0.06 1008.2
20260506071535 0 0.0 0.0 0.00 0.35 0.06 1008.2
20260506071035 0 0.0 0.0 0.00 0.35 0.06 1008.2
20260506070532 0 0.0 0.0 0.00 0.35 0.06 1008.3
20260506062023 58 78 1.0 3.0 0.00 0.35 0.06 97 1008.6
20260506061526 58 80 1.0 3.0 0.00 0.35 0.06 97 1008.5
20260506061026 58 75 0.0 3.0 0.01 0.35 0.06 97 1008.5
20260506060523 58 72 0.0 2.0 0.01 0.35 0.06 97 1008.5
20260506051018 57 63 0.0 1.0 0.02 0.35 0.06 97 1009.1
20260506050520 57 63 0.0 1.0 0.02 0.35 0.06 97 1009.0
20260506045009 56 63 0.0 2.0 0.00 0.33 0.04 97 1009.1